SCP
0 0 0 0 0 0 0 0 0 0 0 1 1 1 2 2 2 2 1 2 2 2 1 2 2 2 1 1 1 1 1 0 0 1 1 1 1 1 1 1 1 1 1 1 1 1 1 1 1
0 0 0 0 0 0 0 0 0 0 0 1 2 2 2 2 2 2 2 2 2 2 1 1 2 2 1 1 1 1 1 1 1 1 1 1 1 1 1 1 1 1 1 1 1 1 1 1 1
0 0 0 0 0 0 0 0 0 0 1 1 2 3 3 2 2 2 2 2 2 2 1 1 1 1 1 1 1 1 1 1 1 1 1 1 1 1 1 1 1 1 1 1 1 1 1 1 1
0 0 0 0 0 0 0 0 0 0 1 1 2 3 3 3 3 2 2 2 2 2 2 1 1 1 1 1 1 1 1 1 1 1 1 1 1 1 1 1 1 1 1 1 1 1 1 1 1
0 0 0 0 0 0 0 0 0 0 1 1 2 3 3 3 3 3 2 2 2 2 2 2 1 1 1 1 1 1 1 1 1 1 1 1 1 1 1 1 1 1 1 1 1 1 1 1 1
0 0 0 0 0 0 0 0 0 1 1 2 3 4 4 3 3 3 2 2 2 2 2 2 1 1 1 1 1 1 1 1 2 2 2 2 1 1 2 2 2 1 1 1 1 1 1 1 1
0 0 0 0 0 0 0 1 1 2 2 3 4 5 4 3 3 3 3 3 2 2 2 2 1 1 1 1 1 2 2 2 2 2 2 2 1 1 1 2 2 1 1 1 1 1 1 1 1
-0 0 0 0 0 0 0 1 2 3 4 5 6 6 5 4 3 3 4 4 3 3 3 2 2 2 1 1 1 2 2 2 2 2 2 2 1 1 1 1 1 1 1 1 1 1 1 1 1
-0 0 0 0 0 0 1 2 3 3 4 5 6 7 6 5 4 4 5 5 6 5 4 3 2 2 2 2 2 2 2 2 2 2 2 2 2 1 1 1 2 2 1 1 1 1 1 1 1
-0 0 0 0 0 0 1 3 3 3 4 5 6 7 7 6 5 6 6 7 7 6 5 3 3 2 2 2 2 2 2 2 2 2 2 2 2 2 1 2 2 2 2 2 1 1 1 1 1
-0 0 0 0 0 1 2 3 3 3 4 4 4 5 6 6 6 7 7 6 6 5 4 4 3 3 4 4 3 3 3 2 2 2 2 2 2 2 2 2 2 2 2 2 2 1 1 1 1
0 0 0 0 1 1 2 3 3 3 3 3 3 3 4 5 6 6 6 5 4 4 4 4 4 5 5 5 4 4 4 3 3 2 2 3 2 2 2 3 3 3 2 2 2 1 1 1 1
0 0 0 1 2 2 3 3 3 3 3 3 3 4 4 5 6 6 6 6 6 6 5 5 5 6 6 6 5 4 4 3 3 3 3 3 3 3 3 3 3 3 3 2 2 2 1 1 1
0 0 0 1 2 2 2 3 3 4 4 4 4 4 5 5 6 7 8 10 11 10 8 7 6 6 6 6 5 5 4 4 4 4 4 4 4 4 3 3 3 3 3 3 3 2 2 2 2
0 0 0 1 2 2 2 3 5 6 5 4 4 4 4 5 5 6 8 10 11 9 8 7 6 6 6 6 6 5 5 4 4 4 5 5 5 5 4 4 4 4 4 4 3 3 3 2 2
0 0 0 1 1 1 1 3 5 6 5 3 3 3 4 4 4 5 6 7 7 6 6 5 5 5 5 5 5 5 5 4 4 4 5 5 5 5 5 5 5 5 5 5 4 3 3 3 2
0 0 0 0 1 1 1 2 3 3 3 3 4 4 5 4 4 6 7 6 6 5 4 4 5 5 5 4 4 5 5 4 4 4 4 5 4 4 5 5 6 6 6 5 5 4 4 3 3
0 0 0 0 0 1 1 2 2 2 2 4 5 5 4 4 5 8 8 6 5 5 4 4 5 5 5 4 4 4 4 4 5 5 5 5 5 4 4 5 6 6 6 6 5 5 4 4 4
0 0 0 0 0 1 1 1 2 2 2 4 5 4 4 5 7 9 8 5 4 4 3 4 4 5 5 5 4 4 4 4 5 5 6 6 6 5 4 4 5 5 5 5 5 5 4 4 4
0 0 0 0 0 1 1 1 2 2 2 3 3 3 4 7 8 8 7 4 3 3 3 3 4 4 5 5 6 6 5 5 5 5 6 6 6 5 4 4 5 5 4 4 4 4 4 3 3
0 0 0 0 1 1 1 1 2 2 2 3 3 4 6 7 7 6 6 5 4 4 3 3 4 4 4 5 6 7 7 7 7 7 7 7 6 5 5 5 5 5 4 4 4 3 3 2 2
0 0 0 0 0 1 1 1 2 2 3 4 4 5 7 7 6 5 4 4 4 4 4 4 5 5 5 5 5 7 8 9 9 9 8 8 7 6 5 5 5 4 4 3 3 3 2 2 2
0 0 0 0 0 0 1 1 2 3 4 5 6 6 6 6 5 4 4 3 4 4 5 6 6 6 6 5 5 6 7 9 10 9 9 8 7 6 5 4 4 4 3 3 3 3 2 2 2
0 0 0 0 0 0 0 1 2 3 5 5 6 6 6 5 4 4 3 3 3 5 7 9 9 8 7 6 5 5 6 7 8 8 8 8 7 7 6 5 4 4 3 3 2 2 2 2 1
0 0 0 0 0 0 0 1 2 4 5 5 5 6 5 5 4 4 3 3 3 5 8 11 10 9 8 7 7 6 6 6 6 7 7 8 7 6 5 5 4 4 3 2 2 2 2 1 1
0 0 0 0 0 0 0 1 3 4 4 4 5 6 5 5 3 3 3 3 3 4 6 8 9 9 9 8 8 7 6 5 6 6 7 7 7 6 5 4 4 3 2 2 1 1 1 1 1
0 0 0 0 0 0 0 1 2 3 3 4 5 5 5 4 3 2 2 2 3 3 4 5 6 6 7 7 7 6 4 3 4 5 6 7 7 6 5 4 3 2 1 1 1 1 1 1 1
0 0 0 0 0 0 0 1 1 2 3 3 4 4 4 3 2 2 1 1 2 3 3 4 4 4 4 4 3 3 2 2 3 4 4 5 7 6 4 3 2 1 1 1 0 1 1 1 1
0 0 0 0 0 0 0 1 1 2 2 3 3 4 3 3 2 2 1 1 1 1 2 3 3 3 2 2 1 1 1 1 1 2 3 4 5 4 3 1 1 0 0 0 0 0 0 0 0
0 0 0 0 0 0 0 1 1 1 2 3 3 3 3 3 2 2 1 1 0 0 1 1 1 2 1 1 1 1 0 0 1 2 2 3 3 2 1 0 0 0 0 0 0 0 0 0 0
Wind_Speed
9 13 11 9 9 10 16 14 5 4 5 6 5 6 10 11 9 9 9 16 21 19 17 16 15 14 13 13 12 12 13 12 12 12 11 10 10 9 9 9 9 8 9 9 9 9 9 9 9
11 14 11 9 10 12 14 12 6 6 6 6 4 6 11 12 12 12 12 17 20 18 15 15 15 14 14 13 13 12 13 13 12 12 11 10 10 9 9 9 8 8 8 8 8 8 9 9 8
12 17 10 9 14 15 11 2 6 8 6 4 4 7 10 8 11 11 14 18 18 16 15 15 15 14 14 13 13 13 13 13 13 12 11 10 10 9 9 8 8 7 7 7 8 8 8 8 8
8 10 9 11 17 18 9 1 4 6 6 6 5 8 10 6 10 14 17 18 18 16 16 15 15 14 14 13 13 13 13 13 12 12 11 10 9 9 9 8 8 7 7 7 7 7 7 7 7
11 9 12 14 18 14 6 4 4 5 5 6 6 11 9 10 17 17 16 17 16 16 16 15 15 14 13 13 12 12 12 12 12 11 11 10 9 8 8 8 7 7 7 6 7 7 7 6 6
9 9 13 15 16 10 6 4 6 6 5 6 8 12 9 9 14 15 15 14 15 17 16 14 15 14 13 13 12 11 11 11 10 10 10 9 9 8 8 8 7 7 7 6 6 6 6 6 6
11 12 15 18 12 8 5 5 7 6 6 4 7 10 10 8 10 13 14 14 15 16 15 13 13 12 12 12 11 11 10 10 9 9 9 9 9 8 8 8 7 7 7 7 6 6 6 6 5
12 12 17 17 11 6 5 5 4 4 4 4 6 8 10 9 11 12 12 13 14 14 13 12 12 11 10 10 11 11 10 10 10 9 9 9 9 8 9 8 8 8 7 7 7 7 7 6 6
15 13 15 15 9 5 5 5 4 3 6 6 9 11 12 11 11 11 10 10 12 12 10 10 11 9 9 10 11 11 10 9 9 8 9 9 7 8 8 9 10 9 8 8 8 8 7 7 8
12 13 16 9 2 2 5 6 5 5 7 9 11 13 13 11 8 9 10 8 10 9 8 8 9 7 6 7 8 6 7 7 6 6 7 6 5 4 6 8 11 10 8 8 9 9 8 8 6
14 16 11 4 4 3 1 3 2 4 5 8 11 12 11 10 8 7 10 8 8 6 4 7 8 6 5 5 5 3 3 4 5 5 6 4 3 3 3 4 6 6 7 6 6 7 6 6 5
13 11 8 4 1 3 3 3 5 5 6 7 10 12 11 9 8 8 9 9 7 6 4 5 7 5 5 5 3 2 2 3 2 3 4 3 1 1 2 2 4 4 4 4 5 4 6 6 5
12 9 7 4 2 4 3 3 5 7 9 9 12 12 10 8 9 9 10 9 8 6 4 5 6 5 4 4 2 2 2 2 1 1 1 1 0 1 1 1 2 3 3 4 4 5 5 5 5
10 10 8 7 8 7 6 6 5 7 10 9 11 12 11 10 11 11 10 10 9 6 4 5 5 5 4 3 2 2 2 2 2 2 1 0 0 0 2 1 1 2 2 2 3 4 4 4 3
8 9 10 10 10 10 9 8 8 9 10 10 10 10 12 12 12 10 10 9 7 5 4 5 5 6 5 4 3 2 2 2 2 2 2 1 1 0 1 1 1 2 2 2 2 4 3 3 3
10 12 12 12 13 11 11 9 10 9 9 9 10 10 11 12 13 11 9 8 7 6 5 5 5 6 5 4 3 3 3 3 2 1 1 1 1 1 1 1 2 2 2 2 3 3 2 2 2
13 13 12 11 12 11 11 8 10 10 10 9 10 10 9 12 12 11 9 8 7 6 6 6 7 6 5 4 3 2 2 2 2 2 2 2 2 2 1 1 2 2 1 2 3 2 2 3 3
11 12 12 10 9 10 11 9 11 8 9 10 10 10 10 11 12 11 10 9 8 7 7 7 7 7 5 3 2 2 2 2 2 2 2 2 1 2 2 1 2 2 1 1 1 2 3 3 3
11 10 9 9 9 9 8 8 11 11 10 11 11 10 11 12 13 11 10 9 9 8 8 8 8 6 5 3 3 2 2 2 2 2 3 3 3 3 2 2 2 1 1 1 1 2 3 3 2
11 8 5 7 8 6 7 10 11 10 9 9 10 11 12 13 12 10 10 9 9 8 8 8 8 8 6 4 3 2 2 1 2 2 3 3 4 4 3 3 2 2 1 2 1 2 2 2 2
10 8 5 5 6 7 8 9 11 11 8 8 9 10 12 12 11 10 10 9 9 9 8 8 8 8 7 6 3 3 1 1 2 3 3 4 4 3 4 4 3 3 2 2 2 2 3 3 3
8 6 4 6 7 6 8 8 9 9 8 8 9 10 11 10 10 10 10 9 9 8 8 8 8 8 7 6 5 5 3 3 3 3 3 4 4 4 4 4 4 3 3 2 2 1 2 3 3
6 3 4 6 7 6 8 9 8 12 11 9 9 11 11 11 10 10 10 9 8 8 7 7 8 8 7 7 7 5 4 3 3 3 4 4 4 4 5 5 4 4 3 3 3 3 2 2 2
6 4 5 6 7 9 8 8 6 9 10 11 11 12 12 12 11 10 10 9 8 8 8 8 8 8 7 7 7 6 6 5 5 5 4 3 3 4 6 6 5 4 3 3 3 2 2 1 2
8 6 4 4 4 7 7 6 2 7 10 15 16 14 12 12 11 10 9 9 8 9 8 8 8 8 7 7 7 7 7 6 6 5 5 4 4 4 6 6 5 5 4 4 3 2 2 2 1
8 9 6 4 6 7 7 3 3 6 9 12 14 14 13 11 10 10 9 9 8 8 8 8 8 8 7 7 7 7 7 5 5 6 5 5 4 4 5 5 5 6 5 4 4 3 3 2 2
7 8 6 6 8 4 4 3 5 8 10 13 14 14 12 11 10 10 9 9 8 8 7 7 7 7 7 7 7 7 7 6 6 6 5 5 5 4 6 5 5 6 5 5 4 3 4 4 3
7 7 4 5 5 6 3 2 3 8 9 11 13 14 13 11 10 10 9 8 8 7 7 8 7 7 7 7 6 6 6 6 5 6 6 6 5 5 5 6 6 6 6 6 5 4 4 5 4
6 6 5 6 5 6 4 1 4 9 12 13 14 14 13 12 11 9 8 8 7 7 6 6 6 6 6 7 6 6 5 6 6 6 6 5 5 6 6 6 6 6 7 7 6 6 6 6 5
8 7 6 6 7 7 4 2 2 7 9 11 13 14 13 12 11 10 9 8 7 7 6 6 6 6 6 6 5 5 5 5 6 6 5 5 6 6 6 6 7 7 7 7 7 7 7 7 7
Wind_Direction
261 256 250 252 244 240 249 251 219 130 113 85 65 66 74 71 78 99 115 111 114 119 126 128 127 130 134 137 140 140 139 137 135 133 131 128 124 121 119 117 115 114 115 117 117 118 120 120 117
265 254 243 246 247 244 242 232 184 124 100 95 109 103 89 82 94 105 110 112 115 122 131 127 128 130 134 136 139 141 144 143 141 141 140 137 134 131 130 127 125 121 120 122 122 123 125 126 126
261 258 247 241 242 253 264 200 134 117 118 141 131 98 80 86 93 107 118 118 118 123 123 124 131 131 135 137 141 145 148 148 146 146 147 145 143 140 138 137 134 132 130 130 130 129 130 132 135
242 232 238 246 248 246 251 148 107 141 158 164 139 100 86 85 104 116 123 122 123 127 125 128 131 132 136 139 143 147 150 151 152 153 153 151 151 147 145 145 144 141 140 140 139 138 138 140 144
237 237 233 247 252 256 235 152 142 195 178 162 137 103 93 82 102 118 124 126 132 128 126 131 132 133 136 140 142 146 150 152 155 157 156 156 155 153 151 153 153 152 149 147 147 146 147 150 154
225 233 240 245 246 241 236 174 185 213 185 168 138 116 99 103 113 127 129 133 132 126 125 129 133 134 138 141 141 142 146 150 153 155 156 157 158 159 160 161 161 160 159 157 156 155 158 163 169
239 244 249 253 251 228 206 191 204 203 190 161 137 115 114 122 128 133 133 132 127 123 126 137 139 138 140 141 141 141 142 145 147 151 155 159 163 166 169 169 170 169 168 170 170 170 172 176 184
243 263 264 262 256 232 186 193 200 212 169 110 112 121 136 141 141 138 131 128 123 123 131 140 144 145 151 150 149 148 149 151 153 157 162 167 170 176 180 181 182 181 180 182 184 184 187 190 199
242 256 263 260 246 202 170 187 180 186 128 97 88 102 131 147 143 137 130 122 118 117 128 139 142 151 161 159 154 156 158 159 161 167 173 179 190 189 189 200 177 186 191 193 195 196 197 202 209
230 246 254 272 298 149 172 181 175 182 142 116 105 111 130 133 136 138 123 117 110 112 126 131 132 141 158 152 144 165 172 164 185 178 179 199 211 199 195 173 174 186 195 203 207 207 208 217 216
231 246 269 306 346 3 162 164 140 175 139 124 126 131 130 132 134 120 107 100 96 101 103 115 123 132 135 119 140 159 166 157 194 187 183 206 217 207 174 158 168 186 198 208 203 209 222 222 227
240 249 272 275 321 283 249 162 111 100 106 108 122 122 124 135 129 109 102 97 98 96 81 98 109 110 101 105 135 140 138 154 183 179 196 204 218 238 184 175 175 188 199 206 198 211 223 235 239
238 245 246 259 221 244 221 157 121 121 115 118 112 106 105 101 100 91 90 90 87 75 63 65 82 91 92 99 117 129 130 131 130 126 210 290 227 288 276 222 184 203 203 204 212 216 221 231 241
226 233 224 217 210 213 208 176 163 143 136 129 119 114 112 95 77 75 73 75 71 63 41 53 74 71 70 86 91 87 92 95 97 92 87 323 268 336 300 278 238 243 230 219 221 228 221 225 240
242 235 224 214 209 200 200 197 169 152 143 141 129 117 111 102 91 82 77 78 76 69 47 30 66 67 59 51 40 57 57 70 68 70 98 126 273 342 285 284 249 258 245 236 230 236 231 223 227
230 233 228 212 206 196 207 198 161 157 154 144 125 112 106 101 98 89 84 78 79 76 63 44 45 59 59 60 49 47 43 48 51 61 48 32 348 337 285 285 267 258 245 226 229 228 220 231 230
220 225 224 206 201 192 208 191 155 165 163 142 124 121 115 105 101 101 98 89 80 70 62 54 48 48 53 64 67 62 58 52 41 47 49 24 350 339 315 289 291 288 277 261 251 227 219 222 223
226 220 215 203 194 205 204 170 153 170 161 151 141 136 123 110 104 101 96 90 78 68 58 52 50 42 38 54 62 63 52 46 35 37 44 20 351 350 341 287 298 300 292 282 273 259 244 227 213
257 240 201 185 184 211 203 168 163 166 179 163 150 141 127 112 104 100 94 85 77 65 60 53 47 38 31 31 26 32 24 22 31 33 32 23 11 4 352 322 321 320 295 275 272 252 255 241 195
259 248 201 169 177 206 206 186 174 170 190 159 149 145 131 119 110 103 95 87 79 67 60 58 47 39 32 27 20 21 18 12 26 29 30 26 15 357 346 346 329 321 289 272 255 246 248 244 210
250 255 238 202 186 211 224 209 177 167 175 145 140 133 124 121 121 112 96 83 74 66 58 55 48 41 31 20 26 28 25 18 34 21 27 25 13 8 1 350 339 324 309 298 272 249 232 240 233
250 252 232 216 216 223 222 225 185 168 169 158 144 127 119 113 107 103 95 81 71 65 62 59 54 45 33 26 28 28 35 29 24 22 27 24 19 13 5 355 349 338 331 320 295 275 253 233 235
261 254 238 244 241 247 243 244 189 174 178 173 152 133 126 120 112 102 95 87 78 70 62 60 57 48 38 33 31 29 35 31 28 30 29 27 23 19 14 6 357 347 342 337 333 330 299 259 241
267 258 268 265 256 246 255 259 195 176 181 170 160 143 131 120 111 103 98 90 78 69 61 60 57 49 43 40 36 32 31 31 31 29 26 22 24 24 21 13 5 358 355 348 344 337 327 305 277
249 244 252 265 277 273 289 274 160 163 169 166 156 144 131 123 116 107 101 92 79 67 60 57 57 50 44 43 39 33 31 31 32 26 25 21 26 26 17 14 6 1 359 358 351 348 348 350 340
254 252 243 244 231 255 254 246 116 115 109 127 135 132 127 124 117 107 97 87 84 76 64 59 57 51 46 46 43 38 32 31 32 27 26 28 26 25 17 13 10 5 2 5 3 8 5 19 25
269 270 283 273 271 252 209 164 121 101 113 123 130 130 128 121 112 105 97 89 81 77 69 64 59 54 47 46 48 48 41 37 33 30 30 29 22 23 23 19 15 11 10 14 18 26 23 24 34
260 285 306 288 293 287 250 176 168 150 151 149 144 140 132 127 118 110 102 93 85 79 73 69 64 59 50 45 42 48 43 42 40 39 35 29 26 26 24 23 23 22 19 21 28 38 35 40 34
275 271 286 294 300 299 307 92 174 180 175 166 153 145 140 134 126 114 107 99 93 85 80 75 70 64 57 52 46 43 43 43 43 43 37 30 25 27 33 31 30 28 26 26 30 40 41 43 39
296 290 295 296 300 299 308 111 119 141 157 163 147 138 134 129 125 119 114 106 97 88 80 74 70 67 64 62 57 52 52 50 47 46 39 36 32 29 35 37 36 40 39 33 35 41 45 46 45